Other Surface Observations
Issued by NWS Tucson, AZ

Home | Current Version | Previous Version | Text Only | Print | Product List | Glossary On
Versions: 1 2 3 4 5 6 7 8 9 10 11 12 13 14 15 16 17 18 19 20 21 22 23 24 25 26 27 28 29 30 31 32 33 34 35 36 37 38 39 40 41 42 43 44 45 46 47 48 49 50
000
SXUS55 KTWC 171315
OSOTWC

WEATHER ROUNDUP FOR SOUTHEAST ARIZONA
NATIONAL WEATHER SERVICE TUCSON AZ
615 AM MST SUN DEC 17 2017

AZZ504>506-514-171415-
LOCATION       SKY/WX    TMP DP  RH WIND       PRES   REMARKS
TUCSON         MOCLDY    50  40  68 E8        29.85R
DAVIS-MONTHAN  CLOUDY    47  41  81 E9        29.83R
CHILDRENS PARK N/A      N/A N/A  76 SE8               PIMA CO DEQ
ALVERNON/22ND  N/A       50 N/A N/A E9                PIMA CO DEQ
CHERRY/GLENN   N/A       51 N/A N/A E9                PIMA CO DEQ
TANGERINE      N/A       52 N/A N/A SE7               PIMA CO DEQ
CONTL RANCH    N/A       53  42  65 SE9               PIMA CO DEQ
GRANT/1ST      N/A       50  42  75 E8                PIMA CO DEQ
CRAYCROFT/22ND N/A       49  44  84 E7                PIMA CO DEQ
GOLFLINKS/KOLB N/A       48  43  83 E5                PIMA CO DEQ
AJO/12TH       N/A       51  42  70 SE7               PIMA CO DEQ
FAIRGROUNDS    N/A       47 N/A N/A E11               PIMA CO DEQ
SAGUARO        N/A       48  42  79 NE5G15            *SABINO CYN
SAN CARLOS     N/A       38  27  64 NW6G17            *SAN CARLOS
GREEN VALLEY   N/A       46  40  79 N2                PIMA CO DEQ
HORSE CAMP CYN N/A       43  33  68 W8G17             *ARAVAIPA CYN
RINCON MTNS    N/A       28  28  98 SE3G15            *NR MANNING CAMP
$$

AZZ509>511-171415-
LOCATION       SKY/WX    TMP DP  RH WIND       PRES   REMARKS
SAFFORD        RAIN      40  28  62 SW13      29.93R WCI  32
STRAY HORSE    N/A       32  26  80 CALM              *
TRAIL CABIN    N/A       36  24  62 E4                *N OF GRANVILLE
BLACK HILLS    NOT AVBL
DRY LAKE       N/A       33  11  40 E3                *NATANES MTNS
NOON CREEK     N/A       39  34  83 SW4               *PINALENO MTNS
COLUMBINE      N/A       27  27  100 SW3G10           *PINALENO MTNS
GUTHRIE        N/A       39  18  43 E5G10             *SW OF GUTHRIE
$$

AZZ502-503-513-171415-
LOCATION       SKY/WX    TMP DP  RH WIND       PRES   REMARKS
NOGALES        TSTM      43  41  93 MISG      29.85R FOG
SELLS          N/A       44  42  94 NE4G27            *
SASABE         N/A       43  40  88 NW3               *ALTAR VLY
HOPKINS        N/A       32  32  99 E10G19            *SANTA RITA MTNS
CARR CYN       N/A       40  36  87 E2                *W OF HEREFORD
$$

AZZ507-508-512-171415-
LOCATION       SKY/WX    TMP DP  RH WIND       PRES   REMARKS
SIERRA VISTA   CLOUDY    41  38  90 CALM      29.89R
DOUGLAS        LGT RAIN  40  38  93 E18       29.91F WCI  31
EMPIRE MTNS    NOT AVBL
MULESHOE RANCH N/A       43  40  90 S6G14             *PRESERVE
HEADQUARTERS   N/A       38  34  86 S3G16             *CHIRICAHUA MTNS
$$

.............................NOTES.............................
THIS IS AN AUTOMATED COLLECTIVE WITH MINIMAL QUALITY CONTROL.
PIMA CO DEQ SITES HAVE NONSTANDARD WIND SENSOR HEIGHTS.
PIMA CO DEQ SITES DO NOT REPORT WIND GUSTS.
* INDICATES WIND SENSORS LOCATED AT 20 FEET INSTEAD OF 33 FEET.
..............................KEY..............................
SKY/WX - SKY CONDITION/WEATHER
TMP    - TEMPERATURE IN FAHRENHEIT
DP     - DEWPOINT IN FAHRENHEIT
RH     - RELATIVE HUMIDITY IN PERCENT
WIND   - DIRECTION AND SPEED IN MILES PER HOUR (MPH)
VRB    - VARIABLE WIND DIRECTION
PRES   - MEAN SEA LEVEL PRESSURE IN INCHES OF MERCURY
         F - FALLING PRESSURE   R - RISING PRESSURE
         S - STEADY PRESSURE
VSB    - VISIBILITY IN MILES
HX     - HEAT INDEX IN FAHRENHEIT
WCI    - WIND CHILL INDEX IN FAHRENHEIT
N/A    - NOT AVAILABLE
AFB    - AIR FORCE BASE
         DAVIS-MONTHAN IS DAVIS-MONTHAN AIR FORCE BASE
CYN    - CANYON
MTNS   - MOUNTAINS
NCA    - NATIONAL CONSERVATION AREA
NR     - NEAR
VLY    - VALLEY
CONTL  - CONTINENTAL
PIMA CO DEQ - PIMA COUNTY DEPT OF ENVIRONMENTAL QUALITY



USA.gov is the U.S. government's official web portal to all federal, state and local government web resources and services.